Other Public Products
Issued by NWS Charleston, SC

Current Version | Previous Version | Text Only | Print | Product List | Glossary Off
Versions: 1 2 3 4 5 6 7 8 9 10 11 12 13 14 15 16 17 18 19 20 21 22 23 24 25 26 27 28 29 30 31 32 33 34 35 36 37 38 39 40 41 42 43 44 45 46 47 48 49 50
875 FPUS82 KCHS 191527 OPUCHS TEST...KCHS/KSAV Gateway Observations...TEST National Weather Service Charleston SC 1100 AM EDT THU APR 19 2018 NOTE: "fair" indicates few or no clouds below 12,000 feet with no significant weather and/or obstructions to visibility. SCZ050-WAZ558-NCZ071-TXZ119-213-PAZ071-DCZ001-FLZ074-172-MI076- NYZ176-178-MAZ016-IL014-TNZ027-NJZ106-GAZ044-MD014-191600- ...Gateway Observations for Charleston International... CITY SKY/WX TMP DP RH WIND PRES REMARKS Chas Airport FAIR 76 61 59 W14G24 29.94S Seattle MOSUNNY 46 41 82 CALM 30.25R Charlotte FAIR 74 48 39 W14G20 29.86R Dallas DFW MOSUNNY 59 31 34 NE15 30.36F Dallas Love MOSUNNY 60 33 36 NE15 30.37F Philladelphia CLOUDY 48 40 73 N5 29.72R Wash National CLOUDY 54 47 77 S8 29.74R Baltimore FAIR 60 45 57 W10G16 29.72R Miami FAIR 79 63 57 S8 30.13S Detroit FAIR 43 24 47 W15 30.10R Newark LGT RAIN 45 39 79 N10 29.72R Laguardia CLOUDY 44 37 76 N8 29.70R J F K CLOUDY 44 39 82 N14 29.70S Boston Logan CLOUDY 38 34 85 W8 29.73R WCI 32 Ft. Lauderdale PTSUNNY 77 65 66 CALM 30.12S Chicago O`Hare FAIR 41 29 62 N13 30.30R Chicago Midway FAIR 43 31 62 N12 30.30R Houston Bush FAIR 69 36 29 NE17G28 30.28S Houston Hobby FAIR 68 34 28 NE21G29 30.27S Nashville CLOUDY 43 27 53 N13G21 30.26R Atlanta FAIR 63 43 48 NW15G21 30.05R $$ GAZ044-118-TXZ119-213-NCZ071-DCZ001-MDZ014-506-PAZ021-071-NJZ106- NYZ176-178-MAZ106-OHZ011-021-055-MIZ076-KYZ091-ILZ014-INZ047- MNZ060-ONZ431-191600- ...Gateway Observations for Savannah International... CITY SKY/WX TMP DP RH WIND PRES REMARKS Savannah Arpt PTSUNNY 78 62 57 W14G23 29.99R Atlanta FAIR 63 43 48 NW15G21 30.05R Charlotte FAIR 74 48 39 W14G20 29.86R Dallas DFW MOSUNNY 59 31 34 NE15 30.36F Houston Bush FAIR 69 36 29 NE17G28 30.28S Wash National CLOUDY 54 47 77 S8 29.74R Wash Dulles CLOUDY 57 41 55 NW25G33 29.74R Baltimore FAIR 60 45 57 W10G16 29.72R Philadelphia CLOUDY 48 40 73 N5 29.72R Newark LGT RAIN 45 39 79 N10 29.72R Laguardia CLOUDY 44 37 76 N8 29.70R J F K CLOUDY 44 39 82 N14 29.70S Boston CLOUDY 38 34 85 W8 29.73R WCI 32 Pittsburg FLURRIES 35 32 88 NW17G26 29.95R WCI 25 Akron FLURRIES 34 28 79 NW13 30.01R WCI 25 Cleveland CLOUDY 38 30 73 NW17G23 30.08R WCI 28 Cincinnati CLOUDY 39 31 72 NW12 30.17R WCI 32 Columbus CLOUDY 37 31 77 NW12 30.13R WCI 30 Detroit FAIR 43 24 47 W15 30.10R Chicago O`Hare FAIR 41 29 62 N13 30.30R Minneapolis FAIR 44 19 36 CALM 30.46R Indianapolis CLOUDY 39 30 70 N10 30.24R WCI 32 Toronto Canada FLURRIES 34 23 64 N20G28 29.93R WCI 22 $$

USA.gov is the U.S. government's official web portal to all federal, state and local government web resources and services.